Location: Mesa Vista Observatory
(35.5777°N, 105.6987°W)
Time: 07:10:35
(UTC-06:00)

Explorer 7 - Visible Passes

Search period start: 26 September 2020 00:00
Search period end: 06 October 2020 00:00
Orbit: 484 x 679 km, 50.3° (Epoch: 26 September)

Date Brightness Start Highest point End Pass type
(mag) Time Alt. Az. Time Alt. Az. Time Alt. Az.
26 Sep 9.4 04:26:52 18° N 04:26:52 18° N 04:29:19 10° NNE visible
26 Sep 9.6 06:05:30 10° NNW 06:08:04 14° N 06:10:38 10° NE visible
27 Sep 9.5 04:31:27 16° N 04:31:27 16° N 04:33:59 10° NNE visible
27 Sep 9.6 06:10:25 10° NNW 06:13:15 15° N 06:16:06 10° NE visible
28 Sep 9.5 04:36:02 14° N 04:36:11 14° N 04:38:47 10° NNE visible
28 Sep 9.5 06:15:08 10° NNW 06:18:24 17° NNE 06:21:41 10° ENE visible
29 Sep 9.6 04:40:38 13° N 04:41:23 14° N 04:43:49 10° NNE visible
29 Sep 9.3 06:19:45 10° NNW 06:23:29 21° NNE 06:27:14 10° ENE visible
30 Sep 9.6 04:45:16 13° NNW 04:46:35 14° N 04:49:09 10° NE visible
30 Sep 9.0 06:24:20 10° NNW 06:28:31 27° NNE 06:32:42 10° E visible
01 Oct 9.5 04:49:56 13° NNW 04:51:45 15° NNE 04:54:39 10° NE visible
01 Oct 8.6 06:28:54 10° NW 06:33:28 38° NNE 06:38:01 10° E visible
02 Oct 9.4 04:54:41 14° NNW 04:56:53 18° NNE 05:00:15 10° ENE visible
03 Oct 9.2 04:59:31 16° NNW 05:01:56 23° NNE 05:05:48 10° ENE visible
04 Oct 8.8 05:04:26 19° NNW 05:06:56 30° NNE 05:11:13 10° E visible
05 Oct 10.4 03:33:10 10° NE 03:33:10 10° NE 03:33:11 10° NE visible
05 Oct 8.3 05:09:30 25° NNW 05:11:50 41° NNE 05:16:29 10° ESE visible
